(228680) = 2002 KX15

Discovered at Palomar on 2002-05-18 by NEAT.

Orbit

Orbit type: Main Belt

Note: WebGL enabled browser required.

epoch2023-02-25.0
epoch JD2460000.5
perihelion date2019-05-20.18894
perihelion JD2458623.68894
argument of perihelion (°)80.09739
ascending node (°)226.54811
inclination (°)12.00979
eccentricity0.1410890
perihelion distance (AU)2.6462313
Tisserand w.r.t. Jupiter3.2
ΔV w.r.t. Earth (km/sec)10.8
semimajor axis (AU)3.0809144
mean anomaly (°)250.93356
mean daily motion (°/day)0.18225710
aphelion distance (AU)3.516
period (years)5.41
P-vector [x]0.58120930
P-vector [y]-0.80406652
P-vector [z]-0.12519096
Q-vector [x]0.79961118
Q-vector [y]0.53575138
Q-vector [z]0.27127923
absolute magnitude16.28
phase slope0.15
uncertainty0
referenceMPO 745323
observations used235
oppositions14
arc length (days)7647
first opposition used2002
last opposition used2023
residual rms (arc-secs)0.77
perturbers coarse indicatorM-v
perturbers precise indicator003Ek
first observation date used2002-05-18.0
last observation date used2023-04-25.0
computer nameMPCLINUX
JD of orbit computation2456966.801362
perihelion JD uncertainty (days)1.9468E-04
argument of perihelion uncertainty (°)4.9952E-05
ascending node uncertainty (°)2.6392E-05
inclination uncertainty (°)7.4390E-06
eccentricity uncertainty 5.3145E-08
perihelion distance uncertainty (AU)1.5792E-07
Minimum Orbit Intersection Distances (in AU)
for orbit epoch: 2460000.5, reference: E2023-HJ2
Mercury2.23008
Venus1.94879
Earth1.66428
Mars1.29493
Jupiter1.79499
Saturn5.68093
Uranus15.0978
Neptune26.6875

Observations

241 total observations over interval: 2002 05 18.23282 – 2023 04 25.328514
These data are available for download (format description).

Date (UT) J2000 RA J2000 Dec Magn Location Ref
2002 05 18.23282 15 38 18.10 -16 12 21.5 19.7 R 644 – Palomar Mountain/NEAT MPS 169870
2002 05 18.29493 15 38 15.06 -16 11 56.3 19.8 R 644 – Palomar Mountain/NEAT MPS 169870
2002 05 18.36343 15 38 11.69 -16 11 28.9 19.9 R 644 – Palomar Mountain/NEAT MPS 169870
2002 05 19.34456 15 37 25.19 -16 04 49.5 19.5 R 644 – Palomar Mountain/NEAT MPS 169870
2002 05 19.35484 15 37 24.70 -16 04 45.4 20.1 R 644 – Palomar Mountain/NEAT MPS 169870
2002 05 19.36782 15 37 24.07 -16 04 40.2 19.4 R 644 – Palomar Mountain/NEAT MPS 169870
2002 05 30.23677 15 29 04.58 -14 53 07.8 19.9 R 644 – Palomar Mountain/NEAT MPS 169870
2002 05 30.24779 15 29 04.03 -14 53 02.3 19.1 R 644 – Palomar Mountain/NEAT MPS 169870
2002 05 30.25858 15 29 03.57 -14 52 59.0 20.4 R 644 – Palomar Mountain/NEAT MPS 169870
2002 06 11.24639 15 21 18.43 -13 43 35.5 20.3 R 644 – Palomar Mountain/NEAT MPS 169870
2002 06 11.26948 15 21 17.58 -13 43 27.9 20.7 R 644 – Palomar Mountain/NEAT MPS 169870
2002 06 11.30328 15 21 16.42 -13 43 17.2 20.5 R 644 – Palomar Mountain/NEAT MPS 169870
2003 09 21.23133 23 01 04.02 +10 16 02.5 19.1   644 – Palomar Mountain/NEAT MPS 170790
2003 09 21.25280 23 01 03.16 +10 15 52.5 19.5   644 – Palomar Mountain/NEAT MPS 170790
2003 09 21.27407 23 01 02.32 +10 15 41.4 19.3   644 – Palomar Mountain/NEAT MPS 170790
2003 10 05.12049 22 53 36.63 +08 16 56.7 21.0 V 691 – Steward Observatory, Kitt Peak-Spacewatch MPS 170790
2003 10 05.14783 22 53 35.92 +08 16 42.7 20.6 V 691 – Steward Observatory, Kitt Peak-Spacewatch MPS 170790
2003 10 05.17549 22 53 35.17 +08 16 28.6 20.9 V 691 – Steward Observatory, Kitt Peak-Spacewatch MPS 170790
2008 07 31.16175 20 06 24.58 -00 48 53.1   691 – Steward Observatory, Kitt Peak-Spacewatch MPS 253497
2008 07 31.17771 20 06 23.83 -00 48 56.0   691 – Steward Observatory, Kitt Peak-Spacewatch MPS 253497
2008 07 31.19366 20 06 23.09 -00 48 58.0   691 – Steward Observatory, Kitt Peak-Spacewatch MPS 253497
2009 10 18.40929 03 21 42.80 +19 14 31.1 20.4 V G96 – Mt. Lemmon Survey MPS 299310
2009 10 18.41806 03 21 42.48 +19 14 27.8 20.7 V G96 – Mt. Lemmon Survey MPS 299310
2009 10 18.42681 03 21 42.15 +19 14 24.9 20.5 V G96 – Mt. Lemmon Survey MPS 299310
2009 10 18.43562 03 21 41.79 +19 14 22.1 20.9 V G96 – Mt. Lemmon Survey MPS 299310
2009 10 23.30701 03 18 29.06 +18 46 22.2 20.9 V 691 – Steward Observatory, Kitt Peak-Spacewatch MPS 300584
2009 10 23.32417 03 18 28.36 +18 46 15.8 20.8 V 691 – Steward Observatory, Kitt Peak-Spacewatch MPS 300584
2009 10 23.34134 03 18 27.60 +18 46 09.9 21.1 V 691 – Steward Observatory, Kitt Peak-Spacewatch MPS 300584
2009 11 08.38648 03 06 06.66 +17 03 04.5 20.3 V G96 – Mt. Lemmon Survey MPS 302117
2009 11 08.39219 03 06 06.33 +17 03 02.1 20.2 V G96 – Mt. Lemmon Survey MPS 302117
2009 11 08.39781 03 06 06.08 +17 02 59.5 20.4 V G96 – Mt. Lemmon Survey MPS 302117
2009 11 08.40358 03 06 05.79 +17 02 57.4 20.2 V G96 – Mt. Lemmon Survey MPS 302117
2009 11 24.17521 02 53 55.50 +15 19 23.3 20.4 V G96 – Mt. Lemmon Survey MPS 304792
2009 11 24.18124 02 53 55.24 +15 19 21.3 20.7 V G96 – Mt. Lemmon Survey MPS 304792
2009 11 24.18714 02 53 54.99 +15 19 19.0 20.6 V G96 – Mt. Lemmon Survey MPS 304792
2009 11 24.19332 02 53 54.74 +15 19 17.0 20.8 V G96 – Mt. Lemmon Survey MPS 304792
2009 12 15.18874 02 42 52.70 +13 30 43.5 21.0 V G96 – Mt. Lemmon Survey MPS 307233
2009 12 15.19553 02 42 52.52 +13 30 41.1 22.1 V G96 – Mt. Lemmon Survey MPS 307233
2009 12 15.20237 02 42 52.38 +13 30 39.6 21.0 V G96 – Mt. Lemmon Survey MPS 307233
2009 12 15.20919 02 42 52.27 +13 30 37.9 21.4 V G96 – Mt. Lemmon Survey MPS 307233
2009 12 16.21295 02 42 33.66 +13 26 46.1 21.2 V G96 – Mt. Lemmon Survey MPS 307233
2009 12 16.21582 02 42 33.58 +13 26 45.2 21.4 V G96 – Mt. Lemmon Survey MPS 307233
2009 12 16.21882 02 42 33.51 +13 26 44.6 21.1 V G96 – Mt. Lemmon Survey MPS 307233
2009 12 16.22179 02 42 33.44 +13 26 43.8 21.0 V G96 – Mt. Lemmon Survey MPS 307233
2010 01 29.419396 02 50 02.981 +12 44 40.45   C51 – WISE MPS 903583
2010 01 29.750221 02 50 14.978 +12 45 11.38   C51 – WISE MPS 903583
2010 01 29.816436 02 50 17.345 +12 45 16.16   C51 – WISE MPS 903583
2010 01 29.948741 02 50 22.034 +12 45 27.11   C51 – WISE MPS 903583
2010 01 30.147260 02 50 29.215 +12 45 45.47   C51 – WISE MPS 903583
2012 03 22.30640 11 17 25.83 -09 44 24.1 20.4 V G96 – Mt. Lemmon Survey MPS 418276
2012 03 22.31393 11 17 25.51 -09 44 21.2 20.9 V G96 – Mt. Lemmon Survey MPS 418276
2012 03 22.32141 11 17 25.15 -09 44 18.1 20.9 V G96 – Mt. Lemmon Survey MPS 418276
2012 03 22.32895 11 17 24.82 -09 44 15.3 21.1 V G96 – Mt. Lemmon Survey MPS 418276
2013 07 02.33641 16 54 24.042 -11 26 02.02 20.4 w F51 – Pan-STARRS 1, Haleakala MPS 471701
2013 07 02.34965 16 54 23.550 -11 26 00.05 20.3 w F51 – Pan-STARRS 1, Haleakala MPS 471701
2013 07 02.36290 16 54 23.050 -11 25 58.09 20.2 w F51 – Pan-STARRS 1, Haleakala MPS 471701
2014 09 13.57323 00 51 31.176 +17 30 04.01 20.0 i F51 – Pan-STARRS 1, Haleakala MPS 532745
2014 09 13.58511 00 51 30.746 +17 30 00.35 20.2 i F51 – Pan-STARRS 1, Haleakala MPS 532745
2014 09 13.59718 00 51 30.315 +17 29 56.98 20.1 i F51 – Pan-STARRS 1, Haleakala MPS 532745
2014 09 13.60903 00 51 29.918 +17 29 53.51 20.3 i F51 – Pan-STARRS 1, Haleakala MPS 532745
2014 09 19.52131 00 47 55.164 +16 58 16.35 20.5 w F51 – Pan-STARRS 1, Haleakala MPS 535886
2014 09 19.53383 00 47 54.662 +16 58 11.84 20.5 w F51 – Pan-STARRS 1, Haleakala MPS 535886
2014 09 19.54594 00 47 54.172 +16 58 07.55 20.4 w F51 – Pan-STARRS 1, Haleakala MPS 535886
2014 09 19.55804 00 47 53.685 +16 58 03.14 20.3 w F51 – Pan-STARRS 1, Haleakala MPS 535886
2014 10 01.31093 00 39 46.97 +15 36 43.3 19.9 V 703 – Catalina Sky Survey MPS 538406
2014 10 01.33951 00 39 45.65 +15 36 27.2 19.4 V 703 – Catalina Sky Survey MPS 538406
2014 10 13.23319 00 31 25.76 +13 57 09.0 19.9 V G96 – Mt. Lemmon Survey MPS 540138
2014 10 13.24569 00 31 25.25 +13 57 02.6 19.9 V G96 – Mt. Lemmon Survey MPS 540138
2014 10 13.25818 00 31 24.72 +13 56 56.0 19.9 V G96 – Mt. Lemmon Survey MPS 540138
2014 10 13.27068 00 31 24.20 +13 56 49.6 19.8 V G96 – Mt. Lemmon Survey MPS 540138
2014 10 25.21250 00 24 20.07 +12 12 22.7 20.4 r G45 – Space Surveillance Telescope, Atom Site MPS 557634
2014 10 25.25710 00 24 18.72 +12 11 59.8 20.2 r G45 – Space Surveillance Telescope, Atom Site MPS 557634
2014 10 25.33957 00 24 16.10 +12 11 16.8 20.4 r G45 – Space Surveillance Telescope, Atom Site MPS 557634
2014 10 25.36181 00 24 15.39 +12 11 05.3 19.9 r G45 – Space Surveillance Telescope, Atom Site MPS 557634
2014 10 26.25612 00 23 49.18 +12 03 27.8 20.3 r G45 – Space Surveillance Telescope, Atom Site MPS 557634
2014 10 26.26721 00 23 48.86 +12 03 22.0 19.5 r G45 – Space Surveillance Telescope, Atom Site MPS 557634
2014 10 26.28390 00 23 48.32 +12 03 14.0 20.3 r G45 – Space Surveillance Telescope, Atom Site MPS 557634
2014 10 26.31555 00 23 47.36 +12 02 57.5 20.4 r G45 – Space Surveillance Telescope, Atom Site MPS 557634
2014 10 26.34896 00 23 46.28 +12 02 40.2 20.6 r G45 – Space Surveillance Telescope, Atom Site MPS 557634
2016 01 13.38305 05 40 50.035 +11 31 30.77 21.4 w F51 – Pan-STARRS 1, Haleakala MPS 671108
2016 01 13.40864 05 40 49.006 +11 31 30.52 21.3 w F51 – Pan-STARRS 1, Haleakala MPS 671108
2016 01 13.42136 05 40 48.507 +11 31 30.53 21.4 w F51 – Pan-STARRS 1, Haleakala MPS 671108
2017 01 04.53747 10 12 18.836 -04 45 01.63 21.8 w F51 – Pan-STARRS 1, Haleakala MPS 1138969
2017 01 04.54990 10 12 18.615 -04 45 03.52 21.8 w F51 – Pan-STARRS 1, Haleakala MPS 1138969
2017 01 04.56230 10 12 18.430 -04 45 05.22 21.9 w F51 – Pan-STARRS 1, Haleakala MPS 1138969
2017 01 31.42306 09 59 22.675 -04 49 57.30 21.7 w F51 – Pan-STARRS 1, Haleakala MPS 765087
2017 01 31.43542 09 59 22.167 -04 49 55.52 21.4 w F51 – Pan-STARRS 1, Haleakala MPS 765087
2017 01 31.44780 09 59 21.638 -04 49 54.29 21.4 w F51 – Pan-STARRS 1, Haleakala MPS 765087
2017 02 04.35983 09 56 39.72 -04 40 55.1 21.4 V G96 – Mt. Lemmon Survey MPS 766997
2017 02 04.36410 09 56 39.56 -04 40 55.3 21.4 V G96 – Mt. Lemmon Survey MPS 766997
2017 02 04.36837 09 56 39.37 -04 40 54.3 21.1 V G96 – Mt. Lemmon Survey MPS 766997
2017 02 04.37263 09 56 39.18 -04 40 53.6 21.4 V G96 – Mt. Lemmon Survey MPS 766997
